Hourly Data Report for October 19, 2013

All times are specified in Local Standard Time (LST). Add 1 hour to adjust for Daylight Saving Time where and when it is observed.

CAPE DORSET A
NUNAVUT

64°13'49.000" N
76°31'30.000" W
48.20 m
2400637
71366
YTE

Download Data

Hourly Data (October 2013)
Hourly Data Report for October 19, 2013
Temp Definition
°C
Dew Point Temp Definition
°C
Rel Hum Definition
%
Wind Dir Definition
10's deg

Wind Spd Definition
km/h
Visibility Definition
km
Stn Press Definition
kPa
Hmdx Definition


Wind Chill Definition


Weather Definition


TIME
00:00 Legend Double Dagger 0.7 -1.4 86 18 13 16.1 100.68     LegendNANA
01:00 Legend Double Dagger 0.8 -2.3 80 17 9 16.1 100.72     LegendNANA
02:00 Legend Double Dagger 1.0 -3.3 73 16 9 16.1 100.75     LegendNANA
03:00 Legend Double Dagger 0.8 -2.6 78 16 9 16.1 100.77     LegendNANA
04:00 Legend Double Dagger 0.8 -2.4 79 16 9 16.1 100.77     LegendNANA
05:00 Legend Double Dagger 0.5 -1.7 85 12 11 16.1 100.80     LegendNANA
06:00 Legend Double Dagger 0.2 -0.8 93 11 9 16.1 100.82     LegendNANA
07:00 Legend Double Dagger 0.2 -0.5 95 10 9 16.1 100.86     LegendNANA
08:00 Legend Double Dagger 0.2 -0.5 95 12 11 16.1 100.89     LegendNANA
09:00 Legend Double Dagger 0.4 -0.5 94 11 11 16.1 100.90     LegendNANA
10:00 Legend Double Dagger 0.6 -0.3 94 13 8 16.1 100.88     LegendNANA
11:00 Legend Double Dagger 0.3 -0.1 97 8 13 12.9 100.91     LegendNANA
12:00 Legend Double Dagger -0.3 -0.6 98 10 11 0.4 100.94   -4 LegendNANA
13:00 Legend Double Dagger 0.0 -0.3 98 6 9 16.1 100.93   -3 LegendNANA
14:00 Legend Double Dagger 0.5 -0.5 93 5 8 16.1 100.94     LegendNANA
15:00 Legend Double Dagger 0.4 -1.2 89 3 9 16.1 100.97     LegendNANA
16:00 Legend Double Dagger -0.1 -1.5 90 5 13 16.1 100.98   -4 LegendNANA
17:00 Legend Double Dagger -0.4 -1.8 90 7 11 16.1 100.99   -4 LegendNANA
18:00 Legend Double Dagger -0.5 -2.4 87 5 5 16.1 101.01   -2 LegendNANA
19:00 Legend Double Dagger -0.3 -2.5 85 5 13 16.1 101.00   -4 LegendNANA
20:00 Legend Double Dagger -0.2 -2.0 88 4 11 16.1 100.99   -4 LegendNANA
21:00 Legend Double Dagger -0.3 -2.2 87 5 15 16.1 100.98   -5 LegendNANA
22:00 Legend Double Dagger -0.3 -1.9 89 5 17 16.1 100.94   -5 LegendNANA
23:00 Legend Double Dagger -0.2 -1.3 92 5 18 16.1 100.92   -5 LegendNANA

Notes on Data Quality.

Legend

  • E = Estimated
  • M = Missing
  • NA = Not Available
  • ‡ = Partner data that is not subject to review by the National Climate Archives
Date modified: